Location: Wildlife_Club
(35.6000°N, 81.4330°W)
Time: 02:36:03
(UTC-04:00)

A-11 Canister half - Pass Details

Date: 30 June 2019
Orbit: 1514 x 1685 km, 47.2° (Epoch: 17 July)

Event Time Altitude Azimuth Distance (km) Brightness Sun altitude
Rises 14:30:56 0° 300° (WNW) 4,869 11.7 71.8°
Reaches altitude 10° 14:34:14 10° 305° (NW) 3,859 11.3 71.2°
Maximum altitude 14:43:52 57° 23° (NNE) 1,823 10.1 69.6°
Drops below altitude 10° 14:53:06 10° 100° (E) 3,720 11.0 68.0°
Sets 14:56:12 0° 105° (ESE) 4,685 11.4 67.5°
